HJ3GNC-11 Weather Reports


Display with metric or nautical units.
time (UTC)temp
F
wind
direction
speed
MPH
gust
MPH
rain 1hr
in
rain 24hr
in
rain mn
in
humidity
%
barometer
mb
20260504224626 58 94 0.0 0.0 0.00 0.00 0.00 80 1015.0
20260504223044 62 94 0.0 0.0 0.00 0.00 0.00 76 1014.0
20260504215918 60 117 0.0 0.0 0.00 0.00 0.00 76 1013.0
20260504214332 62 117 0.0 0.0 0.00 0.00 0.00 73 1013.0
20260504212748 60 119 0.0 0.0 0.00 0.00 0.00 73 1013.0
20260504211204 64 119 0.0 0.0 0.00 0.00 0.00 74 1013.0
20260504205616 62 119 0.0 0.0 0.00 0.00 0.00 74 1013.0
20260504204024 60 119 0.0 0.0 0.00 0.00 0.00 74 1013.0
20260504202438 64 124 0.0 0.0 0.00 0.00 0.00 76 1014.0
20260504200827 62 124 0.0 0.0 0.00 0.00 0.00 76 1014.0
20260504195243 60 124 0.0 0.0 0.00 0.00 0.00 76 1014.0
20260504193701 58 124 0.0 0.0 0.00 0.00 0.00 76 1014.0
20260504190531 63 112 0.0 0.0 0.00 0.00 0.00 73 1014.0
20260504184950 63 112 0.0 0.0 0.00 0.00 0.00 75 1014.0
20260504183406 63 112 0.0 0.0 0.00 0.00 0.00 74 1014.0
20260504181824 65 97 0.0 0.0 0.00 0.00 0.00 71 1014.0
20260504180242 63 97 0.0 0.0 0.00 0.00 0.00 71 1014.0
20260504174659 65 94 0.0 0.0 0.00 0.00 0.00 74 1014.0
20260504173114 63 94 0.0 0.0 0.00 0.00 0.00 74 1014.0
20260504171532 67 98 0.0 0.0 0.00 0.00 0.00 77 1015.0
20260504150640 61 87 0.0 0.0 0.00 0.00 0.00 84 1017.0
20260504100418 53 71 0.0 0.0 0.00 0.00 0.00 98 1018.0
20260504081312 53 77 0.0 0.0 0.00 0.00 0.00 97 1018.0
20260504050139 53 68 0.0 0.0 0.00 0.00 0.00 98 1020.0
20260504044552 53 68 0.0 0.0 0.00 0.00 0.00 97 1020.0
20260504043008 53 68 0.0 0.0 0.00 0.00 0.00 97 1020.0
20260504041424 52 77 0.0 0.0 0.00 0.00 0.00 97 1020.0
20260504034242 50 77 0.0 0.0 0.00 0.00 0.00 97 1020.0
20260504032655 54 81 0.0 0.0 0.00 0.00 0.00 97 1020.0
20260504031109 52 81 0.0 0.0 0.00 0.00 0.00 97 1020.0
20260504025455 54 81 0.0 0.0 0.00 0.00 0.00 97 1020.0
20260504023846 52 81 0.0 0.0 0.00 0.00 0.00 97 1020.0
20260504022244 55 81 0.0 0.0 0.00 0.00 0.00 96 1019.0
20260504020651 55 81 0.0 0.0 0.00 0.00 0.00 96 1019.0
20260504015059 55 81 0.0 0.0 0.00 0.00 0.00 95 1019.0
20260504013449 55 81 0.0 0.0 0.00 0.00 0.00 93 1019.0
20260504010216 56 89 0.0 0.0 0.00 0.00 0.00 91 1018.0
20260504001049 56 97 0.0 0.0 0.00 0.00 0.00 89 1017.0
20260503235444 56 92 0.0 0.0 0.00 0.00 0.00 89 1017.0
20260503233838 56 92 0.0 0.0 0.00 0.00 0.00 86 1016.0
20260503232248 59 103 0.0 0.0 0.00 0.00 0.00 81 1015.0
20260503230701 59 103 0.0 0.0 0.00 0.00 0.00 80 1015.0
20260503225104 59 103 0.0 0.0 0.00 0.00 0.00 81 1015.0